Location: Antioch Baptist Church
(32.6696°N, 85.7327°W)
Time: 21:13:01
(UTC+00:00)

Cosmos 1825 Rocket - Pass Details

Date: 14 July 2020
Orbit: 603 x 631 km, 82.5° (Epoch: 13 August)

Event Time Altitude Azimuth Distance (km) Brightness Sun altitude
Rises 01:33:02 0° 182° (S) 2,895 6.7 -8.3°
Reaches altitude 10° 01:35:14 10° 181° (S) 1,995 5.9 -8.7°
Maximum altitude 01:39:40 79° 95° (E) 645 3.5 -9.5°
Drops below altitude 10° 01:44:08 10° 9° (N) 2,016 6.5 -10.3°
Sets 01:46:23 0° 8° (N) 2,928 7.4 -10.7°
